Location: *
(34.6780°N, 135.8310°E)
Time: 21:33:04
(UTC+00:00)

Cosmos 2366 rocket - Pass Details

Date: 18 October 2019
Orbit: 954 x 998 km, 82.9° (Epoch: 20 November)

Event Time Altitude Azimuth Distance (km) Brightness Sun altitude
Rises 20:31:59 0° 183° (S) 3,691 7.1 -7.5°
Reaches altitude 10° 20:34:29 10° 182° (S) 2,749 6.4 -7.0°
Maximum altitude 20:40:49 85° 95° (E) 1,006 4.2 -5.7°
Drops below altitude 10° 20:47:12 10° 7° (N) 2,771 6.4 -4.4°
Sets 20:49:44 0° 7° (N) 3,722 7.0 -3.9°
